Theta_e
342 347 349 352 352 351 350 350 350 350 352 353 353 354 354 355 355 355 356 356 357 358 357 356 355 354 351 350 351 350 350 349 348 351 351 352 351 351 351 351 351 347 351
343 347 348 351 352 352 351 350 350 351 352 353 353 352 353 354 354 354 355 355 357 357 356 354 353 352 350 350 349 348 347 348 348 349 351 351 350 349 348 349 349 347 350
344 347 348 349 351 352 352 351 351 352 352 353 352 352 353 354 354 354 354 354 355 355 353 352 351 351 349 349 347 347 347 346 346 348 348 342 342 346 346 347 347 349 349
345 346 347 348 350 351 351 351 351 352 352 352 352 352 352 353 354 354 353 353 354 355 354 351 351 351 350 347 347 347 346 344 343 344 339 339 341 344 344 343 346 347 349
344 346 346 346 347 350 351 351 351 352 351 351 351 352 353 353 353 353 352 351 354 356 355 352 352 351 347 345 345 345 344 341 339 339 337 337 339 344 344 343 343 345 346
345 346 343 344 346 348 350 350 351 351 349 349 350 352 353 353 352 351 350 351 353 355 355 353 353 348 344 343 344 344 342 339 338 335 336 341 341 344 344 342 343 343 343
343 343 343 341 344 347 349 350 350 349 348 348 349 350 351 352 352 349 348 350 351 353 353 353 350 346 344 343 343 342 340 338 334 332 333 336 340 344 342 341 343 342 343
343 343 343 345 344 344 346 347 346 347 347 347 348 349 350 350 349 348 347 348 348 349 348 349 346 344 343 342 342 340 338 337 335 331 330 332 341 343 342 343 343 342 343
316 315 335 340 343 342 340 341 342 344 346 346 346 346 347 346 346 347 347 347 347 347 346 346 344 342 342 342 341 338 336 337 333 330 331 328 342 345 345 344 345 343 343
306 308 309 314 329 339 339 340 340 341 342 343 344 344 343 343 344 344 344 345 345 346 345 344 342 341 341 340 339 336 335 336 333 329 329 328 337 345 345 344 343 344 343
306 306 307 310 311 312 329 341 342 342 342 340 343 342 340 344 343 344 343 342 344 343 343 342 341 339 338 338 337 336 335 334 333 331 331 335 337 344 345 345 344 343 343
300 302 302 304 308 310 312 314 334 340 342 341 344 344 344 343 342 344 342 340 341 341 341 340 339 337 337 335 335 336 333 334 333 332 332 335 341 344 346 345 343 342 341
299 299 300 301 304 305 307 311 314 333 337 340 342 342 342 342 342 343 341 341 340 340 339 338 336 337 336 333 333 332 332 332 332 332 332 334 342 345 346 345 343 341 341
296 296 297 298 300 300 303 306 309 311 326 338 339 341 340 340 340 341 341 341 342 341 340 337 337 336 334 332 331 331 331 331 331 331 331 333 337 344 345 344 342 341 340
294 295 295 297 297 298 299 301 303 305 310 319 337 340 340 340 338 339 339 340 340 341 339 337 336 334 332 332 332 331 331 331 332 331 330 332 333 339 344 344 342 341 339
293 293 295 295 296 296 296 298 299 301 306 309 319 337 339 339 340 339 339 338 339 339 338 337 334 332 332 332 331 332 332 332 333 330 330 330 330 334 340 343 342 340 339
291 292 292 294 294 293 294 296 297 299 303 305 311 322 337 337 338 339 339 338 338 338 337 335 332 330 330 330 331 331 332 332 335 331 330 330 329 328 331 337 340 340 339
289 289 291 292 292 292 293 293 295 297 299 302 306 316 326 334 337 336 338 338 339 337 336 334 332 331 329 329 329 329 330 331 335 333 332 333 328 328 327 331 334 337 338
288 288 289 289 290 291 291 292 293 295 297 301 305 307 312 327 335 336 336 338 339 337 336 334 332 331 328 327 328 327 329 330 333 334 332 332 332 330 327 328 329 330 333
288 288 288 289 290 290 290 291 291 292 295 298 300 303 308 314 320 335 336 336 336 336 334 334 331 330 329 328 329 327 328 328 332 333 331 332 331 331 328 327 327 328 327
287 287 287 287 288 289 288 288 288 289 291 294 297 301 305 306 316 327 335 334 336 334 335 333 331 328 325 329 326 321 323 325 326 330 332 330 330 330 327 326 327 328 328
286 286 286 287 288 289 289 289 290 290 291 293 296 299 302 307 317 324 331 333 334 334 334 331 330 329 328 328 323 322 317 322 323 326 325 328 328 327 326 325 325 326 328
284 285 286 288 288 289 290 291 291 291 292 292 295 298 303 310 311 314 321 330 331 334 333 331 331 328 326 324 323 320 312 313 315 319 323 324 324 326 326 325 324 325 326
284 286 287 288 288 289 290 289 289 288 288 291 293 297 301 306 308 311 316 323 329 333 333 332 332 330 327 324 320 322 319 317 314 311 315 318 320 323 325 325 325 325 325
285 286 287 287 288 288 289 289 289 289 291 293 294 296 298 301 304 308 313 319 318 320 329 332 331 329 329 326 326 320 320 318 314 312 310 314 317 320 323 325 325 325 325
286 286 286 287 287 288 288 289 290 289 290 293 295 295 297 300 303 309 315 316 318 316 321 326 331 329 328 328 326 326 325 321 318 314 310 310 316 316 322 321 322 325 325
Wind_Speed
2 2 3 3 5 6 6 6 8 10 11 13 14 13 13 17 18 18 17 15 14 13 15 15 12 10 8 6 5 6 7 6 6 8 8 10 12 13 14 12 12 10 15
5 6 6 5 5 5 6 5 5 7 8 11 12 13 12 13 15 16 16 15 14 14 14 14 12 11 9 6 6 6 6 6 6 8 9 10 11 10 10 10 9 9 15
4 4 4 5 5 5 5 5 5 5 6 8 10 11 12 13 14 16 16 15 14 14 15 14 12 12 9 7 7 7 7 6 6 8 9 5 6 11 9 9 11 12 12
4 3 4 5 4 5 4 4 4 5 7 7 7 9 10 11 12 15 15 14 14 14 14 14 12 12 10 8 8 8 8 9 9 9 5 5 9 12 10 2 9 13 14
5 4 3 4 5 5 5 4 4 4 5 6 7 8 9 10 11 13 13 12 12 13 12 13 11 10 10 10 8 8 8 8 9 7 6 5 6 11 12 8 7 11 15
3 4 5 5 5 5 3 5 5 5 5 6 6 7 9 9 9 10 11 11 11 12 11 10 10 9 8 8 8 8 8 8 8 5 5 8 7 14 14 8 4 9 13
4 2 3 4 4 5 6 6 6 6 5 6 6 7 8 9 9 9 9 10 10 10 10 10 10 10 8 7 9 9 9 8 5 4 5 5 6 16 18 15 7 11 13
6 6 5 5 6 5 4 4 6 6 6 6 6 7 7 8 9 9 9 9 9 10 9 10 10 10 10 8 8 8 10 8 4 4 4 4 7 13 13 16 14 12 14
14 16 9 6 7 8 9 8 5 5 6 7 8 8 8 7 7 9 10 9 10 10 10 10 10 10 10 10 9 8 8 9 5 3 4 4 8 13 14 15 15 16 16
16 17 16 17 15 10 6 7 10 6 6 7 8 9 8 8 8 8 9 9 10 10 11 11 11 10 9 8 9 9 6 8 5 5 4 4 11 14 15 14 14 16 16
14 15 15 16 15 15 13 8 8 8 8 8 6 7 6 4 6 8 9 10 11 11 11 11 10 11 10 9 9 9 9 3 4 3 3 7 11 12 15 13 14 16 17
16 15 15 14 14 14 12 14 12 7 4 4 7 7 6 9 6 7 8 11 11 11 11 12 11 10 8 4 3 7 3 4 4 3 3 8 12 14 15 14 14 15 15
9 10 14 14 12 13 12 8 7 8 5 3 6 6 6 5 6 5 4 5 5 8 5 6 6 4 5 4 4 4 4 4 3 3 4 7 11 14 14 15 15 15 16
15 13 13 13 12 12 9 8 7 7 10 6 7 8 6 5 7 8 7 8 7 6 8 6 5 8 6 5 5 5 5 4 3 3 4 9 9 13 15 16 16 16 17
17 18 16 14 13 13 12 8 8 8 7 11 10 10 10 8 8 8 9 8 8 8 8 8 9 8 7 6 5 5 5 5 5 3 3 8 8 10 13 16 18 18 18
15 16 17 15 13 13 12 13 10 8 8 8 10 11 12 12 9 9 10 9 9 9 9 10 10 8 7 6 6 6 6 5 6 6 3 4 9 8 11 13 16 16 17
13 14 16 18 17 14 13 12 11 10 9 9 8 14 15 12 14 13 10 10 11 9 12 8 7 5 5 5 7 5 4 6 6 8 5 4 4 7 8 9 14 14 15
13 15 15 14 15 16 14 12 11 11 10 10 9 9 16 13 15 15 11 11 10 9 10 9 8 8 7 7 7 6 6 6 8 9 8 6 4 4 6 8 9 12 13
13 15 15 15 15 16 15 13 12 13 11 9 9 9 13 16 15 12 11 12 12 11 11 10 9 9 8 7 7 5 6 7 8 7 8 8 9 6 4 8 9 10 11
13 14 14 14 15 16 12 11 11 10 9 9 10 10 14 10 16 12 10 13 12 11 11 10 12 9 8 9 8 6 6 6 6 7 9 7 8 9 8 7 7 7 12
15 16 16 17 16 14 12 12 12 12 12 11 10 15 13 13 14 14 10 12 14 14 15 14 10 11 6 7 6 2 3 5 6 6 6 7 8 9 8 7 6 5 6
16 17 17 16 16 14 11 12 12 12 12 12 12 14 15 14 13 9 10 11 13 12 16 15 14 9 8 9 7 5 5 3 3 5 4 6 9 6 7 8 8 8 7
16 16 16 17 17 17 19 12 12 12 12 13 12 10 12 11 11 11 11 10 12 15 12 15 16 15 11 7 7 6 4 5 3 2 5 5 6 7 7 8 9 9 9
15 16 19 19 20 16 18 15 17 15 16 13 13 13 13 12 11 11 10 9 7 6 15 15 14 14 11 11 2 3 3 6 5 2 2 4 5 7 8 7 8 9 9
16 18 17 20 19 19 18 16 15 17 13 11 13 17 17 14 13 13 11 8 6 5 7 12 13 14 11 11 11 5 2 2 3 4 4 3 2 5 6 7 7 7 9
17 17 19 20 18 18 17 17 16 17 16 14 14 13 12 10 10 10 8 7 4 4 12 15 14 17 14 12 9 10 11 8 4 4 3 2 5 3 5 5 6 7 7
Wind_Direction
161 136 130 122 115 102 80 73 88 99 110 114 116 115 116 120 122 124 126 129 132 135 138 136 129 118 112 119 131 127 122 137 119 124 137 127 121 128 132 125 124 128 130
137 149 152 143 133 119 112 96 89 98 111 118 122 122 124 123 125 127 127 128 133 138 140 142 134 130 133 135 139 134 132 127 121 136 135 129 137 133 132 119 131 131 132
115 132 146 142 138 129 128 130 125 112 111 120 125 128 133 136 136 134 134 136 138 143 149 148 145 140 144 148 145 144 140 126 128 136 108 115 116 98 128 149 134 126 126
128 136 137 133 122 111 120 144 152 148 133 134 137 137 140 143 145 140 143 143 147 149 153 156 154 148 150 145 146 148 128 117 113 114 106 116 116 118 111 242 152 141 133
115 130 118 141 135 136 141 154 167 177 162 159 153 152 148 152 153 149 147 149 152 153 157 160 155 148 149 144 146 133 126 127 117 122 123 115 111 138 122 147 182 155 146
110 147 156 173 164 151 152 164 180 189 192 182 176 172 159 159 162 159 155 154 154 154 158 159 146 151 157 148 146 140 134 138 126 116 98 105 115 135 132 112 204 179 143
8 28 187 199 212 187 186 178 185 194 199 200 200 197 178 169 170 172 169 163 159 156 156 155 154 159 165 159 151 146 148 155 142 127 110 116 141 154 153 159 204 182 149
32 355 340 326 321 290 254 219 189 196 205 203 212 220 214 186 182 183 182 175 168 160 157 155 159 165 167 168 154 153 156 170 145 140 170 137 178 168 170 159 182 171 151
29 19 0 5 347 337 326 308 266 216 204 207 210 214 219 210 199 196 191 183 174 167 162 162 164 172 173 169 161 156 156 166 159 196 183 165 188 187 183 167 174 171 154
34 26 19 14 3 339 323 319 303 274 240 216 213 211 212 204 205 206 201 194 183 174 168 168 170 172 179 171 166 153 164 158 178 184 183 182 197 198 184 179 184 157 150
22 22 12 9 3 0 352 322 293 275 259 246 240 228 210 214 201 204 204 202 189 180 175 173 175 175 177 173 175 164 162 176 184 197 189 204 215 205 187 181 173 161 156
14 10 9 4 359 357 356 349 329 299 268 260 243 226 223 222 208 195 201 205 198 185 179 177 176 175 164 173 177 182 173 185 186 209 210 228 222 210 197 183 176 170 165
359 12 6 359 359 359 352 349 349 330 302 265 252 247 218 220 217 204 193 202 200 189 181 177 170 169 186 174 188 186 188 188 191 194 225 211 189 196 193 185 178 171 166
5 5 3 358 358 358 347 345 339 342 332 296 270 224 233 216 214 213 209 198 200 190 187 178 176 189 189 189 192 189 194 191 195 197 222 193 185 196 198 191 184 178 174
4 354 359 356 358 350 348 341 337 331 325 326 295 259 231 223 221 208 212 202 200 197 190 188 193 192 187 186 194 198 195 201 188 193 214 191 193 204 192 196 191 189 181
359 352 346 349 354 346 342 338 329 320 312 315 308 283 263 247 228 217 204 204 203 200 198 192 193 191 189 183 198 197 201 204 193 177 196 192 193 194 193 192 194 194 197
356 347 348 342 343 342 338 333 324 314 313 303 300 299 280 264 241 221 212 204 206 199 200 197 185 178 174 181 207 199 193 206 200 172 175 189 186 195 198 198 195 195 203
348 347 341 339 335 335 332 324 315 311 304 297 296 305 301 269 254 233 219 212 203 199 194 194 193 189 195 187 202 203 201 202 202 184 172 178 179 191 209 209 201 196 209
345 339 339 338 337 331 321 317 311 305 297 295 293 293 294 300 274 232 227 218 198 197 197 194 195 190 192 192 197 198 198 195 197 177 179 178 190 195 193 207 201 200 208
341 338 337 337 331 329 320 313 308 302 296 299 291 288 288 298 304 255 218 223 205 197 202 194 194 193 189 190 195 202 203 202 195 186 183 183 191 190 196 193 199 213 212
345 342 340 336 334 329 326 323 315 306 302 297 291 288 290 291 289 290 235 212 211 200 198 196 192 192 184 182 156 186 233 216 204 198 183 185 190 193 190 190 189 194 210
340 339 335 332 328 326 318 312 304 300 298 293 289 283 279 273 281 293 262 226 224 204 194 182 190 183 194 184 180 155 176 212 220 211 187 188 190 187 192 192 192 195 197
340 335 331 329 327 325 321 310 301 294 292 297 295 293 287 284 294 294 295 270 231 208 199 190 187 185 188 187 201 160 140 204 132 192 206 193 186 183 196 195 198 199 198
334 333 337 333 328 324 315 310 304 296 294 290 288 284 285 286 288 287 284 301 268 268 221 203 184 192 186 191 182 219 123 142 170 215 246 216 188 199 197 197 199 202 202
340 340 336 333 330 322 321 312 302 295 288 285 284 281 279 280 278 272 268 263 248 263 291 201 186 191 192 192 191 166 148 135 110 135 214 220 203 198 206 203 197 198 201
343 343 342 335 327 322 321 314 309 298 292 289 281 279 276 272 271 254 256 256 243 226 219 289 205 192 194 198 189 187 202 190 167 149 138 202 220 219 201 192 191 203 199